Погода в Хлебодарском

Украина / Одесская область     46°29′04″N   30°35′30″E
темп.,
°C
ветер,
м/с
пор.,
м/с
влажн.,
%
обл.,
%
осадки,
мм/ч
давл.,
гПа
погр.,
м
19 мая, ср
ср1900:00+12юз5108375 0.3 1001247
03:00+12з71284100 0.4 1001754
06:00+11зюз91592100 1.4 1001982
09:00+12зсз91589100 2.0 1003986
12:00+13зсз101584100 0.1 10061092
15:00+16зсз81364100 0.6 10081510
18:00+18зсз710625 0.3 10091576
21:00+13зсз348040 0.3 101047
20 мая, чт
чт2000:00+12зсз22870 0.0 101119
03:00+11зсз228868 0.0 101011
06:00+11ссв2286100 0.0 101017
09:00+14зсз1177100 0.1 1011234
12:00+13ссв3491100 3.1 1011213
15:00+14св5682100 3.9 1010371
18:00+16всв6775100 0.1 1010499
21:00+12св489189 0.1 1010170
21 мая, пт
пт2100:00+12св4889100 0.1 1010179
03:00+12ссв51090100 0.2 1010368
06:00+12ссв51092100 0.0 1011442
09:00+16св71075100 0.0 1011852
12:00+17св8106895 0.0 10111120
15:00+18ссв81067100 0.0 10111235
18:00+17с8127284 0.0 1012758
21:00+16с71475100 0.0 1013539
22 мая, сб
сб2200:00+15ссв61271100 0.0 1013433
03:00+13с61279100 0.0 1013333
06:00+13с61180100 0.0 1013354
09:00+17с796973 0.0 1014511
12:00+21ссв675775 0.0 10141085
15:00+24ссв564914 0.0 10131675
18:00+24с554957 0.0 10121518
21:00+18с4567100 0.0 101259
23 мая, вс
вс2300:00+16с45773 0.0 101265
03:00+15с338499 0.0 101241
06:00+15ссз358456 0.0 101182
09:00+20ссз346346 0.0 1011492
12:00+24ссз33435 0.0 10111457
15:00+26сз333890 0.0 10101848
18:00+26зсз3340100 0.0 10091760
21:00+18юз477359 0.0 1010107